Flag for Netherlands Weather past 2 weeks in Amsterdam, Netherlands

Now
39 °F

Passing clouds.


Feels Like: 34 °F
Forecast: 40 / 46 °F
Wind: 8 mph from Southwest

Location: Amsterdam Schiphol Airport

Current Time: Jan 27, 2015 at 8:29:38 PM

Latest Report: Jan 27, 2015 at 7:55 PM


Visibility: N/A

Pressure: 30.18 "Hg

Humidity: 93%

Dew point: 37 °F

Location of AmsterdamLocation

Historic Weather in Amsterdam — Graph

°F

Amsterdam temperature yesterday

Maximum temperature yesterday: 46 °F (at 8:25 AM)
Minimum temperature yesterday: 41 °F (at 12:25 AM)
Average temperature yesterday: 44 °F

Past Weeks' High & Low Weather Summary

 TemperatureHumidityPressure
High50 °F (Jan 13, 2:25 AM)100% (Jan 12, 8:55 PM)30.39 "Hg (Jan 12, 8:55 PM)
Low21 °F (Jan 23, 4:25 AM)66% (Jan 17, 1:25 PM)29.27 "Hg (Jan 15, 3:55 PM)
Average38 °F89%29.92 "Hg
* Reported Jan 12 7:25 PM — Jan 27 7:25 PM, Amsterdam, Weather by CustomWeather, © 2014

Note: Actual official high and low records may vary slightly from our data, if they occured in-between our weather recording intervals... More about our weather records

Advertising

Amsterdam weather history for previous 24 hours

 ConditionsComfort  
Time TempWeatherWind HumidityBarometerVisibility
7:25 PM
Jan 27
41 °FPassing clouds.8 mph93%30.18 "HgN/A
6:55 PM39 °FPassing clouds.8 mph93%30.18 "HgN/A
6:25 PM39 °FPassing clouds.8 mph93%30.21 "HgN/A
5:55 PM41 °FPassing clouds.7 mph93%30.21 "HgN/A
5:25 PM43 °FPassing clouds.10 mph87%30.18 "HgN/A
4:55 PM43 °FPartly sunny.10 mph87%30.18 "HgN/A
4:25 PM45 °FScattered clouds.10 mph81%30.18 "HgN/A
3:55 PM45 °FScattered clouds.12 mph81%30.18 "HgN/A
3:25 PM45 °FScattered clouds.12 mph81%30.18 "HgN/A
2:55 PM45 °FPassing clouds.15 mph81%30.18 "HgN/A
2:25 PM45 °FScattered clouds.16 mph81%30.18 "HgN/A
1:55 PM46 °FScattered clouds.14 mph76%30.21 "HgN/A
1:25 PM45 °FScattered clouds.16 mph81%30.21 "HgN/A
12:55 PM45 °FPassing clouds.15 mph87%30.21 "HgN/A
12:25 PM45 °FPassing clouds.16 mph81%30.21 "HgN/A
11:55 AM45 °FPassing clouds.14 mph81%30.21 "HgN/A
10:55 AM45 °FPassing clouds.12 mph81%30.21 "HgN/A
10:25 AM43 °FPassing clouds.10 mph87%30.21 "HgN/A
9:55 AM43 °FPassing clouds.10 mph87%30.21 "HgN/A
9:25 AM43 °FPassing clouds.9 mph87%30.18 "HgN/A
8:55 AM41 °FPassing clouds.12 mph87%30.21 "HgN/A
8:25 AM41 °FPassing clouds.12 mph87%30.18 "HgN/A
7:55 AM41 °FPassing clouds.12 mph87%30.18 "HgN/A
7:25 AM41 °FPassing clouds.12 mph87%30.18 "HgN/A
6:55 AM41 °FPassing clouds.13 mph87%30.18 "HgN/A
6:25 AM41 °FPassing clouds.13 mph87%30.18 "HgN/A
5:55 AM41 °FPassing clouds.12 mph81%30.18 "HgN/A
5:25 AM41 °FPassing clouds.12 mph87%30.18 "HgN/A
4:55 AM39 °FPassing clouds.13 mph87%30.18 "HgN/A
4:25 AM41 °FPassing clouds.12 mph81%30.18 "HgN/A
3:55 AM41 °FPassing clouds.12 mph81%30.18 "HgN/A
3:25 AM41 °FPassing clouds.13 mph81%30.18 "HgN/A
2:55 AM41 °FPassing clouds.10 mph81%30.18 "HgN/A
2:25 AM39 °FPassing clouds.9 mph81%30.18 "HgN/A
1:55 AM39 °FPassing clouds.9 mph81%30.18 "HgN/A
1:25 AM39 °FPassing clouds.7 mph81%30.15 "HgN/A
12:55 AM39 °FPassing clouds.10 mph81%30.15 "HgN/A
12:25 AM41 °FPassing clouds.13 mph76%30.15 "HgN/A
11:55 PM
Jan 26
41 °FPassing clouds.13 mph81%30.15 "HgN/A
11:25 PM43 °FPassing clouds.14 mph76%30.15 "HgN/A
10:55 PM43 °FPassing clouds.13 mph76%30.15 "HgN/A
9:55 PM43 °FPassing clouds.15 mph81%30.12 "HgN/A
9:25 PM43 °FPassing clouds.16 mph81%30.12 "HgN/A
8:55 PM43 °FPassing clouds.17 mph81%30.12 "HgN/A
8:25 PM43 °FPassing clouds.16 mph81%30.12 "HgN/A
Weather by CustomWeather, © 2014

See weather overviewHow to use our weather pages